Location: Unspecified
(58.9933°N, 5.6375°E)
Time: 20:21:29
(UTC+02:00)

Cosmos 1674 - Visible Passes

Search period start: 26 May 2016 00:00
Search period end: 05 June 2016 00:00
Orbit: 500 x 526 km, 82.5° (Epoch: 25 May)

Date Brightness Start Highest point End Pass type
(mag) Time Alt. Az. Time Alt. Az. Time Alt. Az.
26 May 5.1 01:19:46 10° ESE 01:21:24 12° E 01:23:01 10° NE visible
26 May 2.7 02:52:47 11° S 02:56:25 82° E 03:00:12 10° NNE visible
27 May 5.3 01:04:53 10° E 01:05:46 11° E 01:06:39 10° ENE visible
27 May 2.8 02:37:10 11° S 02:40:41 69° E 02:44:28 10° NNE visible
28 May 3.0 02:21:32 12° S 02:24:58 58° E 02:28:43 10° NNE visible
29 May 3.2 02:05:54 12° S 02:09:16 49° E 02:12:56 10° NNE visible
30 May 3.5 01:50:14 11° SSE 01:53:34 41° E 01:57:09 10° NNE visible
30 May 4.1 03:26:06 10° SW 03:29:23 28° WNW 03:32:42 10° N visible
31 May 3.7 01:34:34 11° SSE 01:37:51 35° E 01:41:21 10° NNE visible
31 May 3.9 03:10:10 10° SW 03:13:35 32° WNW 03:17:02 10° N visible
01 Jun 3.9 01:18:53 10° SSE 01:22:10 30° E 01:25:32 10° NNE visible
01 Jun 3.7 02:54:16 10° SW 02:57:47 37° WNW 03:01:21 10° N visible
02 Jun 4.1 01:03:19 10° SSE 01:06:29 26° E 01:09:41 10° NNE visible
02 Jun 3.5 02:38:24 10° SW 02:42:00 43° WNW 02:45:39 10° N visible
03 Jun 4.3 00:47:49 10° SE 00:50:48 23° E 00:53:49 10° NE visible
03 Jun 3.2 02:22:32 10° SSW 02:26:13 50° WNW 02:29:56 10° N visible
04 Jun 4.5 00:32:21 10° SE 00:35:07 20° E 00:37:55 10° NE visible
04 Jun 3.0 02:06:43 10° SSW 02:10:26 60° WNW 02:14:14 10° N visible
